Location: Aulnoy
(48.8410°N, 3.0967°E)
Time: 12:35:12
(UTC+00:00)

Cosmos 2278 Rocket - Pass Details

Date: 09 February 2023
Orbit: 841 x 845 km, 71.0° (Epoch: 23 March)

Event Time Altitude Azimuth Distance (km) Brightness Sun altitude
Rises 18:27:21 0° 333° (NNW) 3,416 5.7 -15.1°
Reaches altitude 10° 18:29:51 10° 336° (NNW) 2,477 4.9 -15.5°
Maximum altitude 18:35:29 63° 58° (ENE) 941 2.2 -16.4°
Enters shadow 18:40:40 12° 139° (SE) 2,306 4.1 -17.3°
